{"data":{"norad_id":87448,"intl_designator":"","name":"UNKNOWN","alt_names":[],"object_type":"UNKNOWN","status":"UNKNOWN","operator":null,"country":null,"launch_date":null,"launch_site_code":null,"launch_vehicle":null,"mission":null,"orbit_class":"UNKNOWN","rcs_meters":null,"size_class":null,"mass_kg":null,"dimensions":null,"purposes":[],"wikipedia_slug":null,"has_3d_model":false,"image_url":null,"decayed_at":null,"tle_current":{"epoch":"2026-09-16T03:40:00.922944Z","epoch_age_seconds":390001,"freshness":"STALE","line1":"1 87448U          26259.15278846  .00000823  00000+0  68504-3 0  9994","line2":"2 87448 100.4328 144.8852 0060507 205.0452 154.7764 13.91308764647800","mean_motion":13.91308764,"eccentricity":0.0060507,"inclination_deg":100.4328,"raan_deg":144.8852,"arg_perigee_deg":205.0452,"mean_anomaly_deg":154.7764,"bstar":0.00068504,"rev_number":64780,"period_min":103.49967147911,"perigee_km":879.86460070135,"apogee_km":968.23126142612,"semimajor_km":7302.1849310637,"source":"CELESTRAK","updated_at":"2026-09-20T09:00:32.474965Z"}}}